TimeEDT,TemperatureF,Dew PointF,Humidity,Sea Level PressureIn,VisibilityMPH,Wind Direction,Wind SpeedMPH,Gust SpeedMPH,PrecipitationIn,Events,Conditions,WindDirDegrees,DateUTC
12:53 AM,60.1,46.9,62,29.69,10.0,WNW,9.2,-,N/A,,Overcast,300,2011-10-17 04:53:00
1:53 AM,62.1,48.0,60,29.72,10.0,WNW,9.2,-,N/A,,Overcast,290,2011-10-17 05:53:00
2:53 AM,59.0,50.0,72,29.73,10.0,WNW,6.9,-,N/A,,Overcast,300,2011-10-17 06:53:00
3:53 AM,59.0,48.0,67,29.73,10.0,WNW,11.5,-,N/A,,Overcast,290,2011-10-17 07:53:00
4:53 AM,57.9,45.0,62,29.76,10.0,WNW,9.2,-,N/A,,Overcast,290,2011-10-17 08:53:00
6:53 AM,55.9,44.1,64,29.80,10.0,WNW,11.5,-,N/A,,Overcast,290,2011-10-17 10:53:00
7:53 AM,55.0,41.0,59,29.82,10.0,West,4.6,-,N/A,,Overcast,280,2011-10-17 11:53:00
8:53 AM,55.9,41.0,57,29.83,10.0,WSW,6.9,-,N/A,,Clear,250,2011-10-17 12:53:00
9:53 AM,59.0,39.0,48,29.84,10.0,West,11.5,-,N/A,,Clear,260,2011-10-17 13:53:00
10:53 AM,60.1,37.9,44,29.84,10.0,WSW,17.3,23.0,N/A,,Clear,250,2011-10-17 14:53:00
11:53 AM,62.1,39.9,44,29.83,10.0,WSW,12.7,-,N/A,,Clear,240,2011-10-17 15:53:00
2:53 PM,66.0,36.0,33,29.76,10.0,WSW,9.2,23.0,N/A,,Clear,250,2011-10-17 18:53:00
3:53 PM,66.0,35.1,32,29.75,10.0,WSW,16.1,24.2,N/A,,Clear,240,2011-10-17 19:53:00
4:53 PM,66.0,36.0,33,29.75,10.0,WSW,11.5,21.9,N/A,,Clear,240,2011-10-17 20:53:00
5:53 PM,64.0,34.0,33,29.75,10.0,SW,10.4,-,N/A,,Clear,230,2011-10-17 21:53:00
6:53 PM,61.0,34.0,36,29.78,10.0,SW,8.1,-,N/A,,Clear,230,2011-10-17 22:53:00
7:53 PM,60.1,34.0,38,29.79,10.0,SW,5.8,-,N/A,,Clear,220,2011-10-17 23:53:00
8:53 PM,57.0,34.0,42,29.80,10.0,WSW,4.6,-,N/A,,Clear,240,2011-10-18 00:53:00
9:53 PM,53.1,36.0,52,29.81,10.0,WSW,3.5,-,N/A,,Clear,250,2011-10-18 01:53:00
10:53 PM,53.1,36.0,52,29.83,10.0,Calm,Calm,-,N/A,,Clear,0,2011-10-18 02:53:00
11:53 PM,51.1,37.0,59,29.82,10.0,Calm,Calm,-,N/A,,Clear,0,2011-10-18 03:53:00